Starlink 31390

operational
NORAD ID: 58937 Int'l Des: 2024-027 Owner: SPXS Country: US Constellation: starlink
LEOCIRCULAR

About Starlink 31390

Description loading...

Live Position

Loading 3D Globe...

Upcoming Passes

Altitude History

Altitude vs Time

uPlot chart will show altitude changes over time

Two-Line Element Set

1 58937U 24027G 25260.66265689 .00001303 00000-0 56120-4 0 9995
2 58937 53.1621 33.5650 0000785 98.2854 261.8236 15.30189888 90839
Epoch: Sep 17, 2025 • Age: 22 hours

Current Status

Altitude 480.5 km
Velocity 7.63 km/s
Sub-Earth Point 49.83°N, 65.23°W
Launch Date Feb 10, 2024
Age 1.6 years
Type internet

Technical Details

Classification Payload
Mass 730.00 kg
Dry Mass 700.00 kg
Total Mass 730.00 kg
Length 0.30 m
Diameter 4.10 m
Span 29.00 m
Shape Box + pan
Manufacturer SPXS
Bus Type Starlink V2M
Phase Status In Orbit
Owner/State SPXS/US

Large Constellations

Loading constellations...